FW6490 Weather Reports


time (UTC)temp
C
wind
direction
speed
KPH
gust
KPH
rain 1hr
cm
rain 24hr
cm
rain mn
cm
humidity
%
barometer
mb
20260901082800 12 270 0.0 0.0 0.00 0.00 0.00 90 1010.0
20260901081750 12 270 0.0 0.0 0.00 0.00 0.00 90 1010.0
20260901081249 12 270 0.0 0.0 0.00 0.00 0.00 90 1009.8
20260901080742 12 270 0.0 0.0 0.00 0.00 0.00 90 1009.8
20260901080236 12 270 0.0 0.0 0.00 0.00 0.00 89 1009.8
20260901075732 12 270 0.0 0.0 0.00 0.00 0.00 89 1009.7
20260901075224 12 270 0.0 0.0 0.00 0.00 0.00 89 1009.7
20260901074724 13 270 0.0 0.0 0.00 0.00 0.00 89 1009.7
20260901074222 13 270 0.0 0.0 0.00 0.00 0.00 89 1009.8
20260901073722 13 270 0.0 0.0 0.00 0.00 0.00 88 1009.8
20260901073219 13 270 0.0 0.0 0.00 0.00 0.00 88 1009.8
20260901072714 13 270 0.0 0.0 0.00 0.00 0.00 88 1009.9
20260901072215 13 270 0.0 0.0 0.00 0.00 0.00 88 1009.9
20260901071204 13 270 0.0 0.0 0.00 0.00 0.00 88 1010.0
20260901070706 13 270 0.0 0.0 0.00 0.00 0.00 88 1010.0
20260901070204 13 270 0.0 0.0 0.00 0.00 0.00 88 1010.0
20260901065206 13 270 0.0 0.0 0.00 0.00 0.00 88 1010.1
20260901064201 13 270 0.0 0.0 0.00 0.00 0.00 89 1010.1
20260901063657 13 270 0.0 0.0 0.00 0.00 0.00 89 1010.1
20260901063157 13 270 0.0 0.0 0.00 0.00 0.00 89 1010.1
20260901062656 13 270 0.0 0.0 0.00 0.00 0.00 88 1010.1
20260901062151 13 270 0.0 0.0 0.00 0.00 0.00 88 1010.1
20260901055650 13 270 1.6 3.2 0.00 0.00 0.00 89 1009.9
20260901055147 13 270 0.0 3.2 0.00 0.00 0.00 88 1009.9
20260901054645 13 270 1.6 3.2 0.00 0.00 0.00 88 1009.9
20260901054148 13 270 1.6 4.8 0.00 0.00 0.00 88 1009.7
20260901053141 13 270 0.0 0.0 0.00 0.00 0.00 87 1009.7
20260901052640 13 270 0.0 0.0 0.00 0.00 0.00 87 1009.6
20260901052140 13 270 0.0 0.0 0.00 0.00 0.00 87 1009.6
20260901051639 13 270 0.0 0.0 0.00 0.00 0.00 86 1009.6
20260901051138 13 270 0.0 0.0 0.00 0.00 0.00 86 1009.7
20260901050630 13 270 0.0 0.0 0.00 0.00 0.00 86 1009.7
20260901050127 13 270 0.0 0.0 0.00 0.00 0.00 86 1009.7
20260901045619 13 270 0.0 0.0 0.00 0.00 0.00 86 1009.6
20260901045123 13 270 0.0 1.6 0.00 0.00 0.00 85 1009.6
20260901043614 14 270 0.0 1.6 0.00 0.00 0.00 84 1009.5
20260901043112 14 270 0.0 0.0 0.00 0.00 0.00 84 1009.5
20260901042608 14 270 0.0 1.6 0.00 0.00 0.00 83 1009.5
20260901042112 15 270 0.0 3.2 0.00 0.00 0.00 83 1009.5
20260901041105 15 270 1.6 11.3 0.00 0.00 0.00 83 1009.6
20260901040603 15 267 1.6 11.3 0.00 0.00 0.00 83 1009.6
20260901040057 15 273 3.2 9.7 0.00 0.00 0.00 83 1009.6
20260901035554 15 273 4.8 11.3 0.00 0.00 0.00 82 1009.5
20260901035056 15 275 3.2 11.3 0.00 0.00 0.00 82 1009.5
20260901034050 15 270 4.8 12.9 0.00 0.00 0.00 82 1009.2
20260901033043 15 285 4.8 11.3 0.00 0.00 0.00 82 1009.2
20260901032541 15 265 3.2 8.0 0.00 0.00 0.00 82 1008.7
20260901032041 15 259 3.2 8.0 0.00 0.00 0.00 82 1008.7
20260901031537 15 277 3.2 8.0 0.00 0.00 0.00 81 1008.7
20260901031037 15 275 3.2 11.3 0.00 0.00 0.00 81 1008.5
20260901030534 15 275 3.2 11.3 0.00 0.00 0.00 81 1008.5
20260901030033 15 278 3.2 6.4 0.00 0.00 0.00 81 1008.5
20260901025031 15 278 4.8 9.7 0.00 0.00 0.00 80 1008.4
20260901024527 15 277 3.2 9.7 0.00 0.00 0.00 79 1008.4
20260901024024 15 276 3.2 9.7 0.00 0.00 0.00 79 1008.4
20260901023522 15 296 3.2 8.0 0.00 0.00 0.00 78 1008.4
20260901023019 16 286 1.6 6.4 0.00 0.00 0.00 78 1008.4
20260901022517 16 286 3.2 12.9 0.00 0.00 0.00 77 1008.4
20260901022014 16 288 3.2 12.9 0.00 0.00 0.00 77 1008.4
20260901021509 16 312 3.2 8.0 0.00 0.00 0.00 76 1008.4
20260901021007 16 312 3.2 12.9 0.00 0.00 0.00 76 1008.4
20260901020508 16 312 4.8 12.9 0.00 0.00 0.00 76 1008.4
20260901020009 16 275 4.8 16.1 0.00 0.00 0.00 76 1008.4
20260901015505 16 292 6.4 16.1 0.00 0.00 0.00 75 1008.2
20260901015001 17 283 6.4 14.5 0.00 0.00 0.00 74 1008.2
20260901013957 17 300 3.2 8.0 0.00 0.00 0.00 72 1008.3
20260901013458 17 281 4.8 9.7 0.00 0.00 0.00 72 1008.3
20260901012455 18 309 4.8 11.3 0.00 0.00 0.00 69 1008.1
20260901011954 18 340 4.8 11.3 0.00 0.00 0.00 68 1008.1
20260901011452 18 331 4.8 11.3 0.00 0.00 0.00 69 1008.1
20260901010951 18 319 4.8 11.3 0.00 0.00 0.00 69 1008.3
20260901010452 18 319 4.8 11.3 0.00 0.00 0.00 68 1008.3
20260901005944 19 318 4.8 11.3 0.00 0.00 0.00 68 1008.3
20260901005446 19 310 4.8 9.7 0.00 0.00 0.00 67 1008.2
20260901004947 19 313 4.8 12.9 0.00 0.00 0.00 66 1008.2
20260901004447 20 310 4.8 12.9 0.00 0.00 0.00 66 1008.2
20260901003946 20 275 4.8 12.9 0.00 0.00 0.00 65 1008.3
20260901003445 20 251 4.8 12.9 0.00 0.00 0.00 64 1008.3
20260901002943 20 350 6.4 14.5 0.00 0.00 0.00 65 1008.3
20260901002440 20 323 6.4 16.1 0.00 0.00 0.00 65 1008.3
20260901001934 20 324 6.4 16.1 0.00 0.00 0.00 63 1008.3
20260901001431 21 258 6.4 12.9 0.00 0.00 0.00 64 1008.3
20260901000930 20 313 6.4 17.7 0.00 0.00 0.00 64 1008.4
20260901000428 20 317 6.4 17.7 0.00 0.00 0.00 64 1008.4
20260831235924 20 321 6.4 16.1 0.00 0.00 0.00 64 1008.4
20260831234927 21 322 6.4 14.5 0.00 0.00 0.00 64 1008.3
20260831234425 20 315 8.0 14.5 0.00 0.00 0.00 65 1008.3
20260831233921 20 315 8.0 14.5 0.00 0.00 0.00 64 1008.5
20260831233422 20 288 6.4 14.5 0.00 0.00 0.00 64 1008.5
20260831232919 20 315 6.4 14.5 0.00 0.00 0.00 64 1008.5
20260831232417 21 313 6.4 16.1 0.00 0.00 0.00 63 1008.5
20260831231914 21 341 6.4 16.1 0.00 0.00 0.00 63 1008.5
20260831231414 20 308 8.0 16.1 0.00 0.00 0.00 64 1008.5
20260831230910 20 310 8.0 16.1 0.00 0.00 0.00 65 1008.6
20260831230414 21 307 8.0 16.1 0.00 0.00 0.00 64 1008.6
20260831225912 20 323 8.0 19.3 0.00 0.00 0.00 64 1008.6
20260831225407 20 315 8.0 19.3 0.00 0.00 0.00 64 1008.7
20260831224910 21 321 8.0 17.7 0.00 0.00 0.00 62 1008.7
20260831223405 21 313 8.0 16.1 0.00 0.00 0.00 61 1008.9
20260831222903 21 306 8.0 17.7 0.00 0.00 0.00 62 1008.9
20260831222401 21 326 8.0 17.7 0.00 0.00 0.00 62 1009.0
20260831221901 21 281 8.0 17.7 0.00 0.00 0.00 62 1009.0
20260831221358 21 321 8.0 17.7 0.00 0.00 0.00 61 1009.1
20260831220356 21 260 9.7 19.3 0.00 0.00 0.00 61 1009.1
20260831215356 22 317 6.4 16.1 0.00 0.00 0.00 58 1009.1
20260831214856 22 348 6.4 16.1 0.00 0.00 0.00 59 1009.1
20260831214352 22 331 6.4 16.1 0.00 0.00 0.00 59 1009.2
20260831213852 22 350 6.4 16.1 0.00 0.00 0.00 59 1009.2
20260831213351 22 347 6.4 16.1 0.00 0.00 0.00 58 1009.2
20260831212851 22 323 6.4 16.1 0.00 0.00 0.00 57 1009.2
20260831211850 22 306 6.4 14.5 0.00 0.00 0.00 58 1009.2
20260831211351 23 313 6.4 14.5 0.00 0.00 0.00 57 1009.2
20260831210848 23 30 6.4 16.1 0.00 0.00 0.00 57 1009.2
20260831210347 23 349 4.8 16.1 0.00 0.00 0.00 57 1009.2
20260831205847 23 319 4.8 17.7 0.00 0.00 0.00 58 1009.2
20260831205345 23 304 4.8 17.7 0.00 0.00 0.00 58 1009.2
20260831204844 23 306 4.8 11.3 0.00 0.00 0.00 58 1009.2
20260831204346 23 15 4.8 12.9 0.00 0.00 0.00 57 1009.2
20260831203844 23 343 4.8 12.9 0.00 0.00 0.00 57 1009.2
20260831203342 23 300 4.8 11.3 0.00 0.00 0.00 57 1009.2
20260831202844 23 322 4.8 11.3 0.00 0.00 0.00 57 1009.2
20260831202342 23 336 3.2 9.7 0.00 0.00 0.00 58 1009.2
20260831201840 23 0 3.2 11.3 0.00 0.00 0.00 58 1009.2
20260831200835 22 355 3.2 8.0 0.00 0.00 0.00 58 1009.3
20260831200334 22 355 3.2 8.0 0.00 0.00 0.00 60 1009.3
20260831195830 22 346 3.2 8.0 0.00 0.00 0.00 62 1009.7
20260831195324 21 321 1.6 8.0 0.00 0.00 0.00 61 1009.7
20260831194824 22 108 1.6 8.0 0.00 0.00 0.00 59 1009.8
20260831194321 22 341 3.2 8.0 0.00 0.00 0.00 62 1009.8
20260831193819 21 340 3.2 8.0 0.00 0.00 0.00 62 1009.8
20260831193317 21 341 3.2 8.0 0.00 0.00 0.00 63 1009.8
20260831192815 21 327 3.2 8.0 0.00 0.00 0.00 64 1010.1
20260831192315 21 325 3.2 8.0 0.00 0.00 0.00 64 1010.1
20260831191816 21 323 3.2 9.7 0.00 0.00 0.00 64 1010.1
20260831190809 20 35 1.6 6.4 0.00 0.00 0.00 67 1010.2
20260831190311 20 226 1.6 8.0 0.00 0.00 0.00 67 1010.2
20260831185805 20 344 3.2 8.0 0.00 0.00 0.00 67 1010.2
20260831184802 19 41 3.2 11.3 0.00 0.00 0.00 70 1010.2
20260831184300 18 71 3.2 8.0 0.00 0.00 0.00 70 1010.3
20260831183800 18 38 3.2 9.7 0.00 0.00 0.00 69 1010.3
20260831183255 18 335 3.2 9.7 0.00 0.00 0.00 70 1010.3
20260831182755 18 47 3.2 8.0 0.00 0.00 0.00 71 1010.6
20260831182256 18 30 3.2 8.0 0.00 0.00 0.00 71 1010.6
20260831181759 18 28 3.2 11.3 0.00 0.00 0.00 71 1010.6
20260831181253 18 331 3.2 11.3 0.00 0.00 0.00 72 1010.5
20260831180752 18 74 3.2 9.7 0.00 0.00 0.00 72 1010.5
20260831180250 18 36 3.2 8.0 0.00 0.00 0.00 73 1010.5
20260831175748 17 5 3.2 8.0 0.00 0.00 0.00 75 1010.3
20260831174246 16 272 1.6 6.4 0.00 0.00 0.00 77 1010.1
20260831173743 16 271 1.6 4.8 0.00 0.00 0.00 76 1010.1
20260831172741 16 271 1.6 6.4 0.00 0.00 0.00 78 1010.2
20260831172239 16 271 1.6 6.4 0.00 0.00 0.00 78 1010.2
20260831171741 15 271 1.6 6.4 0.00 0.00 0.00 79 1010.2
20260831171236 15 271 1.6 6.4 0.00 0.00 0.00 79 1010.2
20260831170737 15 271 1.6 6.4 0.00 0.00 0.00 80 1010.2
20260831170236 15 271 1.6 6.4 0.00 0.00 0.00 80 1010.2
20260831165740 15 271 1.6 8.0 0.00 0.00 0.00 80 1010.1
20260831165234 15 271 3.2 8.0 0.00 0.00 0.00 80 1010.1
20260831164232 15 271 1.6 6.4 0.00 0.00 0.00 80 1010.1
20260831163732 15 271 0.0 4.8 0.00 0.00 0.00 81 1010.1
20260831163232 15 271 0.0 3.2 0.00 0.00 0.00 81 1010.1
20260831162728 15 271 1.6 8.0 0.00 0.00 0.00 81 1010.0
20260831162232 15 271 3.2 8.0 0.00 0.00 0.00 81 1010.0
20260831161728 15 271 1.6 6.4 0.00 0.00 0.00 81 1010.0
20260831161222 15 271 0.0 6.4 0.00 0.00 0.00 82 1009.9
20260831160720 14 271 0.0 0.0 0.00 0.00 0.00 82 1009.9
20260831160219 14 271 0.0 0.0 0.00 0.00 0.00 82 1009.9
20260831155214 14 271 0.0 0.0 0.00 0.00 0.00 83 1009.7
20260831154710 14 271 0.0 0.0 0.00 0.00 0.00 84 1009.7
20260831154206 14 271 0.0 0.0 0.00 0.00 0.00 84 1009.7
20260831153709 14 271 0.0 0.0 0.00 0.00 0.00 84 1009.7
20260831153206 14 271 0.0 0.0 0.00 0.00 0.00 85 1009.7
20260831152659 14 271 0.0 0.0 0.00 0.00 0.00 84 1009.7
20260831152157 13 271 0.0 0.0 0.00 0.00 0.00 84 1009.7
20260831151655 13 271 0.0 0.0 0.00 0.00 0.00 85 1009.7
20260831151149 13 271 0.0 0.0 0.00 0.00 0.00 85 1009.6
20260831150645 13 271 0.0 0.0 0.00 0.00 0.00 85 1009.6
20260831150144 13 271 0.0 0.0 0.00 0.00 0.00 85 1009.6
20260831145145 13 271 0.0 3.2 0.00 0.00 0.00 85 1009.6
20260831144638 13 271 1.6 4.8 0.00 0.00 0.00 85 1009.6
20260831143638 13 271 1.6 4.8 0.00 0.00 0.00 85 1009.4
20260831142636 13 271 1.6 6.4 0.00 0.00 0.00 86 1009.3
20260831141632 13 271 1.6 6.4 0.00 0.00 0.00 86 1009.3
20260831141129 13 271 1.6 6.4 0.00 0.00 0.00 86 1009.0
20260831140630 13 271 1.6 4.8 0.00 0.00 0.00 86 1009.0
20260831140127 13 271 1.6 4.8 0.00 0.00 0.00 86 1009.0
20260831135622 13 271 1.6 3.2 0.00 0.00 0.00 87 1008.4
20260831135120 13 271 0.0 3.2 0.00 0.00 0.00 87 1008.4
20260831134622 13 271 0.0 3.2 0.00 0.00 0.00 87 1008.4
20260831133617 13 271 0.0 3.2 0.00 0.00 0.00 87 1008.3
20260831133113 13 271 0.0 1.6 0.00 0.00 0.00 87 1008.3
20260831132610 13 271 0.0 1.6 0.00 0.00 0.00 87 1008.4
20260831131610 13 271 0.0 4.8 0.00 0.00 0.00 87 1008.4
20260831131108 13 271 0.0 0.0 0.00 0.00 0.00 87 1008.5
20260831130602 13 271 0.0 0.0 0.00 0.00 0.00 87 1008.5
20260831130100 13 271 0.0 0.0 0.00 0.00 0.00 87 1008.5
20260831125556 13 271 0.0 0.0 0.00 0.00 0.00 87 1008.5
20260831125059 13 271 0.0 0.0 0.00 0.00 0.00 86 1008.5
20260831124555 13 271 0.0 0.0 0.00 0.00 0.00 86 1008.5
20260831124055 13 271 0.0 0.0 0.00 0.00 0.00 86 1008.3
20260831123552 13 271 0.0 0.0 0.00 0.00 0.00 86 1008.3
20260831123050 13 271 0.0 0.0 0.00 0.00 0.00 86 1008.3
20260831122547 13 271 0.0 3.2 0.00 0.00 0.00 86 1008.0
20260831122048 13 271 1.6 3.2 0.00 0.00 0.00 87 1008.0
20260831121548 13 271 0.0 3.2 0.00 0.00 0.00 87 1008.0
20260831121053 13 271 0.0 1.6 0.00 0.00 0.00 87 1008.0
20260831120542 13 271 0.0 1.6 0.00 0.00 0.00 87 1008.0
20260831120037 14 271 0.0 3.2 0.00 0.00 0.00 86 1008.0
20260831115034 14 271 0.0 3.2 0.00 0.00 0.00 86 1008.1
20260831113524 14 271 0.0 3.2 0.00 0.00 0.00 86 1008.0
20260831113023 14 271 1.6 3.2 0.00 0.00 0.00 86 1008.0
20260831112525 14 271 0.0 3.2 0.00 0.00 0.00 86 1008.1
20260831112021 14 271 0.0 3.2 0.00 0.00 0.00 86 1008.1
20260831111518 14 271 0.0 3.2 0.00 0.00 0.00 86 1008.1
20260831110512 14 271 0.0 3.2 0.00 0.00 0.00 87 1008.1
20260831110012 14 271 0.0 1.6 0.00 0.00 0.00 87 1008.1
20260831105509 14 271 0.0 0.0 0.00 0.00 0.00 87 1008.2
20260831105010 14 271 0.0 0.0 0.00 0.00 0.00 87 1008.2
20260831104506 14 271 0.0 0.0 0.00 0.00 0.00 87 1008.2
20260831104002 14 271 0.0 3.2 0.00 0.00 0.00 87 1008.2
20260831103500 14 271 1.6 6.4 0.00 0.00 0.00 87 1008.2
20260831102955 14 271 1.6 6.4 0.00 0.00 0.00 87 1008.2
20260831102455 14 271 0.0 4.8 0.00 0.00 0.00 87 1008.1
20260831101956 14 271 0.0 0.0 0.00 0.00 0.00 87 1008.1
20260831101456 14 271 0.0 0.0 0.00 0.00 0.00 87 1008.1
20260831100951 14 271 0.0 0.0 0.00 0.00 0.00 87 1008.1
20260831100453 14 271 0.0 0.0 0.00 0.00 0.00 87 1008.1
20260831095948 14 271 0.0 0.0 0.00 0.00 0.00 86 1008.1
20260831095447 14 271 0.0 0.0 0.00 0.00 0.00 87 1008.2
20260831094947 14 271 0.0 0.0 0.00 0.00 0.00 87 1008.2
20260831094445 14 271 0.0 0.0 0.00 0.00 0.00 87 1008.2
20260831093438 14 271 0.0 3.2 0.00 0.00 0.00 87 1008.3
20260831092939 14 271 1.6 4.8 0.00 0.00 0.00 87 1008.3
20260831092435 14 271 1.6 6.4 0.00 0.00 0.00 87 1008.3
20260831091934 14 271 1.6 6.4 0.00 0.00 0.00 87 1008.3
20260831091434 14 271 1.6 4.8 0.00 0.00 0.00 87 1008.3
20260831090932 14 271 1.6 4.8 0.00 0.00 0.00 87 1008.3
20260831085926 14 271 0.0 4.8 0.00 0.00 0.00 87 1008.3
20260831085420 14 271 1.6 4.8 0.00 0.00 0.00 87 1008.4
20260831084922 14 271 1.6 6.4 0.00 0.00 0.00 87 1008.4
20260831084417 14 271 1.6 6.4 0.00 0.00 0.00 87 1008.4